Home > Weather > Perth > Past weeks

Flag for Australia Weather for the Past 2 Weeks in Perth, Western Australia, Australia

Now
102 °F

Sunny.


Feels Like: 98 °F
Forecast: 72 / 95 °F
Wind: 8 mph from North

Location: Belmont Perth Airport

Current Time: Feb 10, 2016 at 11:52:46 AM

Latest Report: Feb 10, 2016 at 11:00 AM


Visibility: 10 mi

Pressure: 29.89 "Hg

Humidity: 14%

Dew point: 45 °F

Location of PerthLocation

Historic Weather in Perth — Graph

°F

Perth Temperature Yesterday

Maximum temperature yesterday: 108 °F (at 11:30 AM)
Minimum temperature yesterday: 70 °F (at 1:30 AM)
Average temperature yesterday: 87 °F

High & Low Weather Summary for the Past Weeks

 TemperatureHumidityPressure
High108 °F (Feb 8, 1:30 PM)94% (Jan 30, 3:48 PM)30.12 "Hg (Jan 30, 3:48 PM)
Low45 °F (Feb 1, 6:00 AM)7% (Feb 8, 3:00 PM)29.56 "Hg (Jan 31, 2:00 AM)
Average79 °F42%29.90 "Hg
* Reported Jan 26 10:00 AM — Feb 10 10:00 AM, Perth, Weather by CustomWeather, © 2016

Note: Actual official high and low records may vary slightly from our data, if they occured in-between our weather recording intervals... More about our weather records

Advertising

Perth Weather History for the Previous 24 Hours

 ConditionsComfort  
Time TempWeatherWind HumidityBarometerVisibility
10:00 AM
Wed, Feb 10
95 °FSunny.7 mph22%29.92 "Hg10 mi
9:00 AM88 °FSunny.9 mph27%29.92 "Hg10 mi
8:30 AM84 °FSunny.8 mph31%29.95 "Hg10 mi
8:00 AM84 °FSunny.7 mph29%29.95 "Hg10 mi
7:30 AM82 °FSunny.5 mph37%29.95 "Hg10 mi
7:00 AM79 °FSunny.6 mph42%29.95 "Hg10 mi
6:00 AM79 °FSunny.8 mph34%29.92 "Hg10 mi
5:00 AM79 °FSunny.8 mph32%29.89 "Hg10 mi
4:30 AM79 °FClear.9 mph34%29.89 "Hg10 mi
4:00 AM81 °FClear.8 mph32%29.89 "Hg10 mi
3:00 AM82 °FClear.10 mph30%29.89 "Hg10 mi
2:30 AM82 °FClear.8 mph30%29.86 "Hg10 mi
2:00 AM82 °FClear.10 mph30%29.86 "Hg10 mi
1:30 AM73 °FClear.6 mph47%29.89 "Hg10 mi
1:00 AM72 °FClear.6 mph47%29.89 "Hg10 mi
12:30 AM70 °FClear.5 mph50%29.89 "Hg10 mi
12:00 AM72 °FClear.3 mph50%29.92 "Hg10 mi
11:30 PM
Tue, Feb 9
72 °FClear.3 mph47%29.92 "Hg10 mi
11:00 PM72 °FClear.5 mph47%29.92 "Hg10 mi
10:30 PM73 °FClear.No wind47%29.92 "Hg10 mi
10:00 PM77 °FClear.5 mph36%29.92 "Hg10 mi
9:30 PM77 °FClear.5 mph42%29.92 "Hg10 mi
9:00 PM79 °FClear.6 mph37%29.92 "Hg10 mi
8:30 PM84 °FClear.7 mph31%29.89 "Hg10 mi
8:00 PM88 °FClear.8 mph24%29.89 "Hg10 mi
7:00 PM93 °FClear.9 mph16%29.89 "Hg10 mi
6:00 PM99 °FSunny.10 mph15%29.89 "Hg10 mi
5:30 PM100 °FSunny.13 mph11%29.89 "Hg10 mi
5:00 PM102 °FSunny.9 mph11%29.89 "Hg10 mi
4:00 PM102 °FSunny.17 mph10%29.89 "Hg10 mi
3:00 PM104 °FSunny.14 mph9%29.89 "Hg10 mi
2:30 PM106 °FSunny.14 mph9%29.89 "Hg10 mi
2:00 PM104 °FSunny.12 mph10%29.89 "Hg10 mi
1:00 PM106 °FSunny.14 mph9%29.89 "Hg10 mi
12:30 PM104 °FSunny.14 mph11%29.92 "Hg10 mi
12:00 PM108 °FSunny.9 mph8%29.92 "Hg10 mi
11:30 AM108 °FSunny.9 mph8%29.92 "Hg10 mi
11:00 AM104 °FSunny.10 mph9%29.95 "Hg10 mi
Weather by CustomWeather, © 2016

See weather overviewHow to use our weather pages